Flag for Pakistan Weather past 2 weeks in Rawalpindi, Pakistan

Now
88 °F

Passing clouds.


Feels Like: 102 °F
Forecast: 85 / 101 °F
Wind: 18 mph from Southeast

Location: Islamabad Airport

Current Time: Jul 23, 2014 at 10:11:51 PM

Latest Report: Jul 23, 2014 at 9:00 PM


Visibility: 2 mi

Pressure: 29.56 "Hg

Humidity: 75%

Dew point: 79 °F

Location of RawalpindiLocation

Historic Weather in Rawalpindi — Graph

°F

Rawalpindi temperature yesterday

Maximum temperature yesterday: 100 °F (at 3:00 PM)
Minimum temperature yesterday: 86 °F (at 3:00 AM)
Average temperature yesterday: 92 °F

Past Weeks' High & Low Weather Summary

 TemperatureHumidityPressure
High104 °F (Jul 9, 1:00 PM)100% (Jul 19, 7:00 AM)29.65 "Hg (Jul 19, 7:00 AM)
Low68 °F (Jul 19, 6:00 AM)29% (Jul 9, 1:00 PM)29.42 "Hg (Jul 15, 5:00 PM)
Average89 °F60%29.53 "Hg
* Reported Jul 8 9:00 PM — Jul 23 9:00 PM, Rawalpindi, Weather by CustomWeather, © 2014

Note: Actual official high and low records may vary slightly from our data, if they occured in-between our weather recording intervals... More about our weather records

Advertising

Rawalpindi weather history for previous 24 hours

 ConditionsComfort  
Time TempWeatherWind HumidityBarometerVisibility
9:00 PM
Jul 23
88 °FPassing clouds.18 mph75%29.56 "Hg2 mi
8:00 PM88 °FPassing clouds.21 mph75%29.53 "Hg2 mi
7:00 PM90 °FScattered clouds.21 mph75%29.53 "Hg2 mi
6:00 PM90 °FScattered clouds.23 mph67%29.50 "Hg2 mi
5:00 PM93 °FScattered clouds.18 mph63%29.50 "Hg2 mi
4:00 PM95 °FScattered clouds.18 mph63%29.50 "Hg2 mi
3:00 PM95 °FScattered clouds.16 mph63%29.50 "Hg2 mi
2:00 PM95 °FScattered clouds.14 mph63%29.53 "Hg2 mi
1:00 PM95 °FScattered clouds.12 mph63%29.53 "Hg2 mi
11:00 AM91 °FScattered clouds.14 mph75%29.56 "Hg2 mi
10:00 AM91 °FScattered clouds.14 mph75%29.56 "Hg1 mi
9:00 AM88 °FBroken clouds.16 mph79%29.56 "Hg1 mi
8:00 AM88 °FScattered clouds.14 mph79%29.56 "Hg1 mi
7:00 AM86 °FBroken clouds.12 mph79%29.56 "Hg2 mi
5:00 AM86 °FPartly cloudy.12 mph75%29.53 "Hg2 mi
10:00 PM
Jul 22
91 °FHaze.9 mph67%29.53 "Hg2 mi
Weather by CustomWeather, © 2014

See weather overviewHow to use our weather pages